Theta_e
311 310 311 311 312 311 311 311 311 313 313 314 314 313 313 312 310 309 309 310 311 310 308 309 309 309 307 305 303 301 300 299 298 297 297 296 296 295 294 294 293 292 292 291
313 312 311 311 311 312 312 312 311 312 310 311 311 313 312 310 312 312 311 311 311 311 307 305 306 306 305 303 301 299 299 299 298 297 296 295 295 294 294 293 292 291 291 291
312 313 313 313 313 313 312 312 312 312 311 310 310 311 312 311 311 311 312 311 311 311 306 304 301 303 303 300 299 299 299 298 298 297 296 295 294 293 292 292 291 291 290 290
311 312 311 311 312 312 313 311 311 312 312 313 311 314 311 311 311 310 311 310 309 304 304 303 301 300 301 300 299 299 298 298 297 296 295 294 293 292 291 291 291 291 290 289
311 312 310 312 312 310 312 312 312 313 313 312 314 313 314 310 310 310 310 309 309 305 303 303 302 303 301 300 298 298 298 297 296 296 295 293 292 292 292 291 291 290 289 289
308 308 311 311 309 310 310 311 311 310 308 313 311 311 311 309 310 310 310 308 309 308 304 303 303 302 300 299 298 297 296 296 296 295 294 294 292 291 292 291 290 290 289 289
308 308 308 309 311 308 310 310 311 311 312 314 309 310 312 311 310 309 310 309 308 304 303 301 299 299 298 297 297 296 296 295 295 295 294 294 292 292 292 291 290 289 289 288
309 310 308 307 310 309 308 310 312 310 312 313 308 311 311 309 309 307 307 308 307 304 303 301 299 299 298 297 296 296 295 295 294 294 293 293 292 292 292 291 290 290 289 289
308 310 308 306 308 309 309 311 310 312 297 308 312 310 308 309 308 307 307 306 305 304 302 301 298 298 297 297 297 296 295 295 294 293 293 292 292 291 291 290 290 290 290 289
310 310 309 306 306 307 308 307 311 310 309 308 312 309 311 310 311 310 307 305 304 304 303 301 299 298 298 298 297 297 296 295 294 293 293 292 292 292 291 290 290 289 289 288
308 310 311 305 306 308 306 308 308 309 310 313 313 312 308 310 309 309 306 305 304 304 302 302 301 300 299 298 297 296 295 295 294 293 292 291 291 291 290 290 289 289 288 287
310 311 312 310 305 305 307 309 309 311 311 308 312 313 312 308 309 306 309 309 307 306 304 301 300 300 298 297 296 296 295 294 294 293 291 291 290 290 289 289 289 288 288 286
312 313 317 315 312 305 307 306 308 308 309 312 314 314 312 311 311 309 305 303 304 304 303 302 300 298 299 298 296 295 295 294 293 293 291 290 289 289 288 288 288 287 286 285
314 312 316 318 315 312 312 310 308 310 312 313 313 313 311 310 310 309 309 309 308 306 303 303 304 301 298 298 297 295 294 294 293 292 290 289 288 288 287 286 286 286 285 284
314 314 314 314 314 314 314 314 313 313 312 313 313 311 309 309 309 309 309 308 308 304 303 303 303 301 299 297 297 296 295 293 292 290 289 288 287 286 285 284 285 285 284 282
313 317 316 316 314 313 315 314 314 314 314 313 312 311 310 311 311 310 310 310 309 308 307 305 301 300 298 297 298 296 294 292 292 290 288 287 285 284 283 283 284 283 282 281
315 313 317 319 316 315 316 315 315 314 312 312 313 311 310 310 310 311 311 310 309 308 307 305 302 300 297 297 298 295 294 292 290 289 287 285 283 281 281 282 281 279 278 278
312 313 313 318 317 318 313 310 312 313 312 312 312 312 311 311 311 311 310 310 310 310 308 302 300 299 299 302 299 297 294 290 289 287 285 282 281 280 279 279 278 277 277 277
312 314 316 317 318 315 314 310 311 312 312 310 311 311 311 310 310 310 308 305 306 306 306 304 302 302 301 301 300 294 289 288 287 285 283 281 281 279 278 277 277 276 275 275
310 312 314 314 316 315 313 310 309 311 315 300 301 302 302 305 308 307 304 301 301 300 300 297 297 299 299 299 296 290 287 286 285 285 283 281 280 279 277 277 276 275 275 275
305 309 313 315 315 313 304 297 303 315 301 297 298 298 297 300 301 300 299 299 298 297 297 298 296 292 291 292 290 287 285 285 285 284 282 280 279 278 277 276 275 274 274 273
300 301 303 302 308 310 298 298 293 294 296 296 294 294 294 295 296 297 298 297 296 296 297 297 290 291 291 290 288 285 283 284 284 282 280 278 277 276 275 275 273 273 273 272
295 294 294 296 296 293 295 291 293 296 294 292 292 292 294 294 295 295 296 297 297 297 296 297 290 288 289 288 288 285 284 283 282 279 277 276 275 275 274 273 272 272 272 271
289 290 291 290 290 289 289 291 291 290 290 290 290 288 290 292 293 291 291 293 293 293 293 295 295 292 292 291 287 286 285 283 281 277 275 274 273 272 272 272 271 271 271 271
289 289 287 288 288 288 289 290 288 288 287 285 284 286 286 285 285 286 286 287 289 291 292 293 292 292 292 293 289 287 284 281 278 276 274 273 272 271 271 271 271 271 271 272
289 289 288 287 288 287 287 286 286 282 281 281 282 281 281 281 281 281 283 283 284 285 287 290 292 290 292 292 289 286 282 279 277 275 273 272 271 271 270 270 271 272 272 273
Wind_Speed
6 5 10 23 16 6 5 6 9 19 10 10 17 18 21 19 10 13 16 18 19 19 15 24 32 40 39 42 43 46 47 43 41 39 38 33 34 31 29 27 25 24 21 19
2 12 19 5 10 11 12 15 16 16 12 10 14 21 18 10 14 15 16 18 22 17 9 9 21 31 40 43 44 45 46 44 44 43 41 33 38 34 32 28 26 25 23 22
18 11 17 12 9 8 20 15 19 18 10 6 8 11 13 11 10 14 17 18 20 18 12 7 10 26 33 37 43 47 47 47 47 44 41 29 31 26 29 30 31 31 28 25
11 11 11 6 7 12 23 10 15 10 3 12 4 14 8 7 12 10 15 18 15 12 9 8 10 16 31 36 41 45 47 47 45 45 43 40 35 28 34 37 38 34 30 27
10 3 8 13 24 9 18 3 4 1 4 5 6 6 3 8 8 11 16 18 17 12 10 11 15 26 29 35 41 43 45 44 43 47 47 45 35 32 30 35 37 34 31 27
11 1 4 7 2 5 2 1 1 2 2 12 8 9 6 7 9 6 10 12 15 12 9 10 12 21 23 32 36 39 43 46 47 47 47 48 40 39 33 34 36 37 34 31
3 12 4 5 3 2 3 4 4 4 1 13 12 11 23 5 7 11 13 13 15 7 9 9 11 12 21 31 36 37 40 38 43 46 50 50 46 45 43 40 41 41 39 34
4 14 12 8 14 11 8 9 6 7 10 19 4 8 6 10 11 11 13 15 6 8 8 10 12 11 20 27 33 35 37 36 44 47 48 48 48 46 46 44 43 44 44 40
7 13 2 4 2 8 5 6 8 1 2 3 9 12 7 7 10 11 14 3 8 9 9 10 8 14 21 26 34 40 38 39 42 45 45 46 47 46 46 45 44 44 42 37
6 8 8 4 1 3 5 2 1 1 3 7 17 6 14 15 22 19 7 9 8 6 8 8 9 12 23 30 35 36 38 41 39 44 47 46 49 49 45 45 46 43 38 35
6 8 16 5 7 10 1 4 5 2 5 13 15 14 6 2 6 7 7 6 8 9 9 10 10 17 25 25 32 36 37 39 40 45 46 44 46 47 47 46 46 44 38 36
2 4 4 11 7 6 5 7 9 9 10 4 7 15 20 8 5 7 5 4 1 5 8 9 9 11 18 24 28 37 36 39 47 43 40 42 40 43 43 44 43 41 39 37
4 2 4 8 13 3 6 7 7 6 3 11 13 14 27 24 26 23 9 10 10 12 11 8 8 10 13 22 27 31 34 42 39 40 43 38 41 42 43 43 43 41 39 37
10 9 12 17 16 8 8 7 9 15 11 22 21 32 27 32 31 27 21 26 21 15 12 11 11 10 8 19 25 28 32 40 39 40 39 39 40 43 43 43 42 41 39 39
12 10 18 26 27 30 29 26 26 21 21 19 28 25 24 31 29 26 25 23 19 8 9 9 11 9 12 15 23 28 32 33 38 36 36 38 39 41 43 43 42 41 40 39
11 17 18 21 27 31 31 32 33 34 33 26 32 32 33 30 31 31 35 30 20 18 19 13 11 12 13 12 24 29 30 34 39 36 36 36 39 41 43 43 45 44 42 40
10 7 11 26 20 23 24 32 37 30 25 24 28 35 36 35 31 32 31 29 19 21 20 13 12 11 11 16 27 24 33 34 36 34 32 36 38 38 40 42 43 41 41 40
25 22 11 13 16 23 11 16 28 33 33 32 35 34 31 28 26 24 23 20 24 26 20 10 9 10 18 28 27 31 28 33 31 30 31 34 37 36 35 39 39 39 41 41
19 18 10 15 17 19 9 7 19 19 30 26 27 27 23 21 22 21 16 20 16 20 19 11 12 14 18 22 28 24 25 26 27 28 32 36 38 36 36 36 36 36 35 35
12 19 19 22 26 33 25 8 12 21 21 20 15 20 16 15 4 4 20 19 19 17 15 15 23 19 17 18 16 21 18 23 25 31 34 36 37 38 39 39 37 36 36 32
13 14 19 21 16 9 10 20 12 9 8 24 13 15 19 15 8 14 19 23 19 13 12 22 22 9 13 12 13 12 14 19 19 22 29 33 34 33 32 32 32 34 33 30
6 5 5 7 15 25 19 9 10 13 16 13 17 16 16 12 15 16 17 20 19 17 16 19 9 14 11 7 14 10 11 12 17 25 27 27 29 29 33 34 29 32 32 30
7 2 4 5 8 22 9 16 6 4 6 9 12 15 15 18 18 18 17 17 18 17 13 19 13 12 14 11 14 11 14 17 20 23 23 25 26 26 31 33 30 28 27 27
6 11 6 12 9 19 21 15 12 16 15 13 7 13 14 17 15 21 19 16 17 17 15 20 17 13 15 16 19 24 22 25 28 25 22 26 29 26 27 26 28 28 27 24
8 12 6 13 16 14 12 10 12 14 8 13 15 14 16 17 18 18 18 20 17 18 17 18 16 13 19 26 23 26 28 29 26 25 32 33 28 30 29 30 32 31 27 29
12 15 11 16 19 9 17 12 9 6 9 10 13 17 18 16 19 19 17 17 17 17 22 18 21 20 26 29 25 24 27 30 24 22 21 22 23 32 34 33 26 24 28 23
Wind_Direction
208 147 205 228 201 227 250 252 236 268 260 205 241 238 255 256 258 249 256 261 260 253 255 243 227 212 198 196 192 191 190 193 193 189 189 192 196 201 204 208 208 206 203 200
244 218 221 213 205 225 247 257 263 275 270 196 249 254 253 242 245 243 239 252 258 256 258 240 206 190 186 186 187 184 188 191 194 194 196 196 200 202 207 206 209 210 207 205
222 219 218 225 235 261 250 248 259 256 294 232 281 266 248 245 253 252 253 247 258 257 234 216 181 182 176 177 181 184 188 194 196 198 197 196 201 204 204 207 209 211 210 209
247 234 221 193 210 195 262 218 258 267 257 271 134 290 218 231 239 237 246 255 251 241 220 200 183 176 179 182 183 186 190 195 197 199 195 195 193 195 207 204 208 209 210 210
234 218 201 225 234 194 261 182 237 247 239 317 176 285 201 197 242 247 245 249 257 243 205 192 191 190 186 178 182 186 192 194 197 203 203 200 201 204 207 210 209 206 208 211
247 158 214 212 170 193 110 204 198 40 84 263 189 209 184 195 213 235 246 248 250 256 199 198 186 172 178 182 182 186 190 196 201 205 203 206 203 205 204 207 205 203 206 207
290 226 170 147 176 286 171 78 301 315 24 260 184 221 252 275 216 214 231 239 238 181 180 168 162 172 176 182 185 187 191 194 199 204 206 209 208 210 212 208 204 203 203 205
252 284 158 187 200 189 184 176 173 225 259 277 157 251 256 224 232 232 223 229 223 177 187 182 181 180 185 189 189 191 195 197 203 206 209 211 213 213 217 217 211 209 206 208
208 262 308 192 176 151 169 181 219 334 64 1 257 274 294 256 281 271 247 168 223 203 189 191 182 188 189 191 197 196 198 203 206 207 209 212 215 215 216 216 215 215 212 210
234 263 195 146 143 328 170 146 110 278 208 242 273 274 271 286 278 272 240 210 206 203 196 201 204 198 199 201 203 204 207 206 207 210 211 211 214 218 219 218 214 214 213 206
295 243 258 123 194 183 150 248 234 215 181 243 258 271 152 97 316 290 260 225 197 212 216 213 212 211 209 202 202 206 208 209 210 214 212 210 213 216 218 221 220 217 212 205
310 294 292 252 289 201 168 213 215 238 259 237 272 265 276 294 334 288 110 270 290 217 238 233 218 214 199 202 201 207 209 210 215 214 211 212 213 216 216 217 218 212 207 206
166 202 273 289 284 231 210 197 211 242 227 244 264 266 275 277 280 274 236 259 263 271 257 241 231 217 209 208 209 209 208 215 214 210 211 207 210 213 214 212 210 206 206 207
175 198 202 232 238 271 264 257 255 249 254 259 247 256 263 270 262 269 272 266 268 259 243 224 234 228 213 214 212 212 213 216 211 207 202 201 203 207 208 208 205 203 206 205
176 231 220 230 236 252 261 254 252 250 249 246 257 257 253 258 274 273 277 272 271 246 226 234 242 229 223 218 218 216 219 210 207 199 198 200 201 202 205 204 202 203 205 206
207 247 227 234 227 226 237 246 249 252 248 250 254 258 256 261 265 271 270 271 286 277 265 241 227 235 234 219 220 218 214 207 202 196 196 193 192 194 197 199 199 201 202 204
247 248 226 249 227 232 239 236 240 247 250 241 247 246 250 259 260 259 274 283 280 270 262 255 233 230 233 231 229 216 213 204 194 194 189 186 185 188 191 193 196 194 195 200
268 262 269 265 264 241 222 208 226 241 245 249 253 258 260 258 270 271 274 277 286 281 281 246 241 242 242 249 243 228 207 193 187 184 184 182 183 185 184 187 189 189 194 195
229 247 267 262 254 271 265 227 227 234 251 267 290 278 280 294 285 274 334 352 327 328 316 294 269 255 259 260 255 211 183 178 178 181 184 185 184 180 180 183 185 185 185 188
258 242 250 259 261 266 276 347 327 262 257 2 2 359 1 346 332 11 349 345 339 344 346 338 324 300 280 268 230 188 180 176 188 191 189 186 183 182 183 185 182 182 185 188
271 269 257 253 255 256 10 10 315 241 337 317 6 6 357 344 337 314 318 321 318 315 311 323 320 309 321 292 213 186 180 202 200 187 185 185 185 185 184 179 179 178 174 176
280 325 296 310 264 266 24 18 14 299 304 341 334 331 323 298 291 293 296 301 306 315 320 316 302 307 317 256 216 200 211 209 194 185 184 181 182 179 179 176 176 174 171 169
295 11 303 320 318 314 290 315 300 289 285 309 315 329 332 316 307 309 322 326 318 310 316 313 299 301 298 259 227 216 220 200 188 186 176 176 179 179 179 172 171 166 172 167
279 283 290 321 286 299 305 317 347 352 338 336 332 315 307 303 314 309 301 299 296 295 304 306 305 300 293 275 251 245 231 208 189 178 173 174 173 172 176 177 178 174 180 174
258 295 264 273 280 286 286 315 340 323 347 337 325 316 319 315 304 300 300 300 299 299 290 294 290 278 280 281 260 252 234 211 189 183 174 176 179 174 175 183 185 177 184 182
256 262 269 276 292 302 301 323 318 360 319 312 311 310 308 309 304 305 304 306 305 299 304 300 286 277 276 275 257 246 225 206 192 180 180 191 186 178 178 174 176 188 181 176